This demonstration page uses our WeatherBlox Daily Observations layout. Learn more.

Left ArrowRight Arrow

Hourly Observations for August 8, 2021

Temp ( °F °C ) Dew Point ( °F °C ) Humidity (%) Winds ( mph kmh ) Pressure ( in mb ) Visibility ( mi km ) Precip ( " mm )
12:15 am 00:15 Clear 71 21.9 68 20.1 90 90 SSW 5 7 30.00 1016 10 16 0.00 0.00
12:35 am 00:35 Clear 70 20.9 68 19.8 93 93 S 5 7 29.98 1015 7 11 0.00 0.00
12:55 am 00:55 Clear 70 21.3 67 19.7 91 91 SSW 3 6 29.97 1015 10 16 0.00 0.00
1:15 am 01:15 Clear 69 20.4 67 19.4 94 94 S 3 6 29.99 1015 7 11 0.00 0.00
1:35 am 01:35 Clear 67 19.7 66 19 96 96 SSE 6 9 29.98 1015 7 11 0.00 0.00
1:55 am 01:55 Clear 69 20.5 67 19.4 93 93 SSW 3 6 29.96 1015 7 11 0.00 0.00
2:15 am 02:15 Clear 68 20.2 67 19.2 94 94 SW 5 7 29.97 1015 7 11 0.00 0.00
2:35 am 02:35 Clear 68 20 66 19 94 94 WSW 3 6 29.97 1015 7 11 0.00 0.00
2:55 am 02:55 Clear 68 19.8 66 18.7 93 93 SSW 3 6 29.97 1015 7 11 0.00 0.00
3:15 am 03:15 Clear 66 19.1 65 18.4 96 96 SSW 5 7 29.97 1015 7 11 0.00 0.00
3:35 am 03:35 Clear 67 19.4 65 18.5 95 95 S 5 7 29.97 1015 7 11 0.00 0.00
3:55 am 03:55 Clear 67 19.6 65 18.3 92 92 SSW 3 6 29.97 1015 7 11 0.00 0.00
4:15 am 04:15 Clear 67 19.2 64 18 93 93 WSW 3 6 29.98 1015 10 16 0.00 0.00
4:35 am 04:35 Clear 66 18.7 64 17.7 94 94 SW 5 7 29.99 1016 10 16 0.00 0.00
4:55 am 04:55 Clear 67 19.2 64 17.8 92 92 SW 3 6 30.00 1016 10 16 0.00 0.00
5:15 am 05:15 Clear 66 19 64 17.8 93 93 S 6 9 29.98 1015 10 16 0.00 0.00
5:35 am 05:35 Clear 67 19.3 64 17.9 92 92 SSW 5 7 29.98 1015 10 16 0.00 0.00
5:55 am 05:55 Clear 67 19.2 64 17.8 92 92 SW 3 6 30.00 1016 10 16 0.00 0.00
6:15 am 06:15 Clear 66 18.9 64 17.6 92 92 SW 3 6 29.99 1016 10 16 0.00 0.00
6:35 am 06:35 Clear 65 18.3 63 17.4 95 95 Calm 30.00 1016 10 16 0.00 0.00
6:55 am 06:55 Sunny 65 18.5 64 17.5 94 94 SSE 3 6 30.00 1016 7 11 0.00 0.00
7:15 am 07:15 Sunny 65 18.3 64 17.5 95 95 Calm 30.01 1016 7 11 0.00 0.00
7:35 am 07:35 Sunny 66 18.9 64 17.9 94 94 SSW 5 7 30.01 1016 7 11 0.00 0.00
7:55 am 07:55 Sunny 68 20.1 65 18.5 91 91 SSW 5 7 30.01 1016 7 11 0.00 0.00
8:15 am 08:15 Sunny 70 21.1 66 19 88 88 SSW 5 7 29.99 1016 10 16 0.00 0.00
8:35 am 08:35 Sunny 71 21.9 67 19.2 85 85 SSW 6 9 29.99 1016 10 16 0.00 0.00
8:55 am 08:55 Sunny 73 22.7 67 19.4 82 82 SSW 7 11 30.00 1016 10 16 0.00 0.00
9:15 am 09:15 Sunny 74 23.4 67 19.6 79 79 S 5 7 30.00 1016 10 16 0.00 0.00
9:35 am 09:35 Sunny 75 23.9 67 19.6 77 77 S 6 9 29.99 1016 10 16 0.00 0.00
9:55 am 09:55 Sunny 77 24.8 68 20.1 75 75 SSW 6 9 30.00 1016 10 16 0.00 0.00
10:15 am 10:15 Sunny 78 25.6 68 20.1 72 72 SSW 8 13 29.99 1016 10 16 0.00 0.00
10:35 am 10:35 Sunny 80 26.4 68 19.9 68 68 SSW 6 9 29.99 1015 10 16 0.00 0.00
10:55 am 10:55 Sunny 81 27 68 19.9 65 65 SSW 10 17 29.99 1016 10 16 0.00 0.00
11:15 am 11:15 Sunny 80 26.9 68 20.2 67 67 SW 10 17 29.99 1016 10 16 0.00 0.00
11:35 am 11:35 Sunny 80 26.8 69 20.4 68 68 SW 10 17 30.00 1016 10 16 0.00 0.00
11:55 am 11:55 Sunny 81 27.3 69 20.7 67 67 SW 12 19 30.00 1016 10 16 0.00 0.00
12:15 pm 12:15 Sunny 82 27.7 69 20.7 66 66 SW 8 13 30.00 1016 10 16 0.00 0.00
12:35 pm 12:35 Sunny 82 28 70 21 66 66 SSW 10 17 29.99 1016 10 16 0.00 0.00
12:55 pm 12:55 Sunny 82 28 69 20.6 64 64 SSW 9 15 29.99 1016 10 16 0.00 0.00
1:15 pm 13:15 Partly Cloudy 84 28.7 70 21.1 64 64 SW 14 22 29.99 1016 10 16 0.00 0.00
1:35 pm 13:35 Sunny 84 28.8 69 20.8 62 62 SSW 9 15 29.99 1016 10 16 0.00 0.00
1:55 pm 13:55 Partly Cloudy 84 29 70 21 62 62 SSW 9 15 29.98 1015 10 16 0.00 0.00
2:15 pm 14:15 Partly Cloudy 85 29.2 69 20.6 60 60 SSW 12 19 29.98 1015 10 16 0.00 0.00
2:35 pm 14:35 Partly Cloudy 84 28.8 69 20.7 62 62 SSW 14 22 29.97 1015 10 16 0.00 0.00
2:55 pm 14:55 Partly Cloudy 85 29.2 69 20.5 59 59 S 9 15 29.97 1015 10 16 0.00 0.00
3:15 pm 15:15 Partly Cloudy 85 29.6 69 20.6 58 58 S 12 19 29.97 1015 10 16 0.00 0.00
3:35 pm 15:35 Partly Cloudy 85 29.7 69 20.7 58 58 S 10 17 29.97 1015 10 16 0.00 0.00
3:55 pm 15:55 Partly Cloudy 85 29.4 69 20.4 58 58 S 10 17 29.95 1014 10 16 0.00 0.00
4:15 pm 16:15 Partly Cloudy 85 29.6 69 20.3 57 57 S 10 17 29.95 1014 10 16 0.00 0.00
4:35 pm 16:35 Sunny 85 29.2 69 20.3 59 59 SW 7 11 29.94 1014 10 16 0.00 0.00
4:55 pm 16:55 Partly Cloudy 84 28.9 68 19.9 58 58 SSW 12 19 29.94 1014 10 16 0.00 0.00
5:15 pm 17:15 Partly Cloudy 83 28.2 67 19.6 60 60 SSW 12 19 29.93 1014 10 16 0.00 0.00
5:35 pm 17:35 Partly Cloudy 83 28.5 68 20 60 60 SSW 9 15 29.92 1013 10 16 0.00 0.00
5:55 pm 17:55 Sunny 83 28.3 68 20 61 61 SSW 12 19 29.92 1013 10 16 0.00 0.00
6:15 pm 18:15 Sunny 84 29 67 19.7 57 57 SSW 10 17 29.92 1013 10 16 0.00 0.00
6:35 pm 18:35 Sunny 84 28.8 68 20 59 59 SSW 12 19 29.91 1013 10 16 0.00 0.00
6:55 pm 18:55 Partly Cloudy 83 28.6 68 19.9 59 59 SSW 10 17 29.92 1013 10 16 0.00 0.00
7:15 pm 19:15 Partly Cloudy 83 28.2 68 19.9 61 61 SSW 12 19 29.93 1014 10 16 0.00 0.00
7:35 pm 19:35 Sunny 82 27.9 68 19.8 61 61 SSW 12 19 29.94 1014 10 16 0.00 0.00
7:55 pm 19:55 Sunny 81 27.4 68 20 64 64 S 8 13 29.94 1014 10 16 0.00 0.00
8:15 pm 20:15 Sunny 81 27 68 19.9 65 65 SSW 8 13 29.94 1014 10 16 0.00 0.00
8:35 pm 20:35 Sunny 79 26.1 68 19.8 68 68 SSW 6 9 29.95 1014 10 16 0.00 0.00
8:55 pm 20:55 Clear 77 25.2 68 20 73 73 S 6 9 29.96 1015 10 16 0.00 0.00
9:15 pm 21:15 Clear 77 25.2 68 19.9 73 73 S 6 9 29.96 1015 10 16 0.00 0.00
9:35 pm 21:35 Clear 77 25 68 20 74 74 S 5 7 29.96 1015 10 16 0.00 0.00
9:55 pm 21:55 Clear 77 25.2 68 20 73 73 S 6 9 29.97 1015 10 16 0.00 0.00
10:15 pm 22:15 Clear 77 25.2 68 20 73 73 S 6 9 29.97 1015 10 16 0.00 0.00
10:35 pm 22:35 Clear 77 25 68 20 74 74 S 7 11 29.97 1015 10 16 0.00 0.00
10:55 pm 22:55 Clear 77 24.8 68 20 75 75 S 6 9 29.98 1015 10 16 0.00 0.00
11:15 pm 23:15 Clear 77 25 68 20 74 74 S 7 11 29.98 1015 10 16 0.00 0.00
11:35 pm 23:35 Clear 77 25.1 68 20 73 73 S 7 11 29.97 1015 10 16 0.00 0.00
11:55 pm 23:55 Partly Cloudy 77 25 68 20 74 74 SSW 8 13 29.98 1015 10 16 0.00 0.00

Powered by AerisWeather